Regional Weather Roundup
Issued by NWS

Home | Current Version | Previous Version | Text Only | Print | Product List | Glossary Off
Versions: 1 2 3 4 5 6 7 8 9 10 11 12 13 14 15 16 17 18 19 20 21 22 23 24 25 26 27 28 29 30 31 32 33 34 35 36 37 38 39 40 41 42 43 44 45 46 47 48 49 50

000
ASUS45 KTFX 260919
RWRMT
MONTANA HOURLY WEATHER ROUNDUP
NATIONAL WEATHER SERVICE GREAT FALLS MT
319 AM MDT SAT JUL 26 2014

NOTE: "FAIR" INDICATES FEW OR NO CLOUDS BELOW 12000 FEET WITH NO
SIGNIFICANT WEATHER AND/OR OBSTRUCTIONS TO VISIBILITY.

* THESE STATIONS ARE NOT UNDER NWS QUALITY CONTROL. THEY DO NOT
   REPORT WEATHER SUCH AS PRECIPITATION OR FOG.

MTZ001>007-043-261000-
WEST OF THE DIVIDE
CITY           SKY/WX    TMP DP  RH WIND       PRES   REMARKS
KALISPELL      CLEAR     46  43  89 NE3       30.11R
MISSOULA       CLEAR     52  41  66 CALM      30.14R
BUTTE          CLEAR     45  28  51 S5        30.21R
MULLAN PASS    CLEAR     48  37  66 NW5       30.22S
* ESSEX        N/A       50  44  80 N/A        N/A
* LINCOLN      N/A       46  40  80 NE1        N/A
* LOOKOUT PASS N/A       48  42  80 N/A        N/A
* POLSON       N/A       53  42  66 N/A        N/A
* RONAN APT    CLEAR     48  45  89 N/A        N/A
* SEELEY LAKE  N/A       40  36  86 NE1        N/A
* THOMP F APT  CLEAR     58  25  28 NW8G17     N/A
$$

MTZ008-052>055-261000-
SOUTHWEST MONTANA
CITY           SKY/WX    TMP DP  RH WIND       PRES   REMARKS
BOZEMAN        CLEAR     45  37  74 SE9       30.14S
DILLON         CLEAR     50  27  41 SE6       30.17R
W YELLOWSTONE  CLEAR     36  30  79 CALM      30.23S
* THREE FORKS  CLEAR     48  46  93 N/A        N/A
* BOULDER HILL N/A       53  30  41 SW2        N/A
* MONIDA PASS  N/A       49  27  43 SW11       N/A
* RAYNOLDS PAS N/A       47  31  54 S2         N/A
* WHITEHALL    N/A       53  35  51 NW4G10     N/A
* WISE RIVER   N/A       45  27  49 S3         N/A
$$

MTZ009>010-012-014-046-048-049-054-261000-
EAST SLOPES AND CENTRAL MONTANA
CITY           SKY/WX    TMP DP  RH WIND       PRES   REMARKS
CUT BANK       CLEAR     46  43  89 CALM      30.09R
GREAT FALLS    CLEAR     52  37  57 E7        30.08R
HELENA         CLEAR     55  37  51 E6        30.11S
MALMSTROM AFB  CLEAR     54  39  57 NW1       30.10R
* CONRAD       CLEAR     45  45 100 N/A        N/A
* DEARBORN     N/A       52  40  64 SW3        N/A
* EAST GLACIER N/A       54  37  53 N8         N/A
* MONARCH      N/A       44  28  53 E4         N/A
* PENDROY      N/A       51  39  64 N4         N/A
* SAINT MARY   N/A       56  38  51 S7G17      N/A
* SWEET GRASS  N/A       53  48  83 NW7        N/A
* WHITE SULPH  N/A       53  33  47 S3G8       N/A
$$

MTZ011-013-016-021-035-040-045-047-050-051-261000-
NORTH CENTRAL MONTANA
CITY           SKY/WX    TMP DP  RH WIND       PRES   REMARKS
HAVRE          CLEAR     54  46  74 SW10      30.02R
LEWISTOWN      CLEAR     50  43  77 SW9       30.11R
* FORT BENTON  CLEAR     52  45  77 CALM      30.08R
* CHESTER      N/A       52  45  77 W3         N/A
* DENTON       N/A       49  45  86 W6         N/A
* GEYSER       N/A       47  35  63 SE2        N/A
* JUDITH GAP   N/A       52  34  50 NW11       N/A
* LOMA         N/A       52  46  80 S4         N/A
$$

MTZ017>020-022>027-061-062-261000-
NORTHEAST MONTANA
CITY           SKY/WX    TMP DP  RH WIND       PRES   REMARKS
GLASGOW        CLEAR     55  48  77 W10       29.92R
GLENDIVE       CLEAR     54  46  74 SW3       29.96R
JORDAN         CLEAR     50  43  77 W5        30.00R
SIDNEY         CLEAR     61  46  58 W9        29.91R
WOLF POINT     CLEAR     57  46  67 SW10      29.90R
* BEAVER HILL  N/A       55  47  75 W6         N/A
* CIRCLE       N/A       54  47  77 SW3        N/A
* LINDSAY DVD  N/A       55  46  72 W10        N/A
* NAVAJO       N/A       56  50  80 W15G21     N/A
$$

MTZ028>042-056>058-261000-
SOUTHCENTRAL AND SOUTHEAST MONTANA
CITY           SKY/WX    TMP DP  RH WIND       PRES   REMARKS
BAKER          CLEAR     55  43  64 NW6       29.97R
BILLINGS       CLEAR     63  32  31 NW10      30.06S
LIVINGSTON     CLEAR     54  34  47 NW10      30.12S
MILES CITY     CLEAR     55  43  64 NW8       29.99R
* LAUREL APT   CLEAR     59  32  36 N/A        N/A
* ROUNDUP APT  CLEAR     57  34  42 N/A        N/A
* ALZADA       N/A       56  47  72 W2         N/A
* HYSHAM       N/A       59  35  41 NE2        N/A
* LAME DEER    N/A       60  32  35 VRB11      N/A
* REED POINT   N/A       56  34  44 E4         N/A
* ROSCOE HILL  N/A       58  27  31 SE7        N/A
$$

REGIONAL REPORTS...DAKOTAS
CITY           SKY/WX    TMP DP  RH WIND       PRES   REMARKS
WILLISTON      CLEAR     57  48  72 W12       29.85R
DICKINSON      CLEAR     55  46  72 NW13      29.89R
CROSBY         N/A       57  55  93 SW13G21   29.79S
TIOGA          CLEAR     55  55 100 W16       29.85S
WATFORD CITY   CLEAR     50  48  93 W6        29.86R
BISMARCK       CLEAR     61  52  72 S8        29.81F
GRAND FORKS    CLEAR     59  55  87 S8        29.75F
FARGO          CLEAR     57  54  90 S7        29.79S
BUFFALO SD     CLEAR     63  43  48 NW23G31   29.86R
RAPID CITY     CLEAR     61  52  72 N10       29.89R
$$

REGIONAL REPORTS...WYOMING/IDAHO/WASHINGTON
CITY           SKY/WX    TMP DP  RH WIND       PRES   REMARKS
GILLETTE       CLEAR     57  32  39 CALM      30.04R
SHERIDAN       PTCLDY    61  32  34 W12       30.06S
YELLOWSTONE LA PTCLDY    36  28  73 NW3       30.31S
SALMON         CLEAR     52  36  55 CALM      30.14R
MULLAN PASS    CLEAR     48  37  66 NW5       30.22S
SAND POINT     CLEAR     46  46 100 W3        30.10S
SPOKANE        CLEAR     59  39  48 CALM      30.08R
$$

REGIONAL REPORTS...ALBERTA
CITY           SKY/WX    TMP DP  RH WIND       PRES   REMARKS
CALGARY        MOCLDY    54  46  74 NW13      30.06S
LETHBRIDGE     CLEAR     48  46  93 S5        30.08R
MEDICINE HAT   CLOUDY    55  52  90 SW10      29.99R
EDMONTON       LGT RAIN  54  52  93 W12G18    29.96S VSB 3
WATERTON GATE  N/A       54  37  53 SW9        N/A
CARDSTON       N/A       48  41  77 SW2        N/A
MILK RIVER     N/A       43  41  93 NW3        N/A
$$

REGIONAL REPORTS...SASKATCHEWAN
CITY           SKY/WX    TMP DP  RH WIND       PRES   REMARKS
SWIFT CURRENT  CLOUDY    55  52  90 W21G32    29.83R
REGINA         LGT RAIN  55  54  96 W21G30    29.66R
VAL MARIE      N/A       57  52  83 W13G20     N/A
ASSINIBOIA     N/A       55  52  90 W23G31     N/A
CORONACH       N/A       55  50  83 W15G22     N/A

$$




USA.gov is the U.S. government's official web portal to all federal, state and local government web resources and services.